Powrót do katalogu

COSMOS 1691 DEB

AktywnyPO
NORAD 18565·DEBRIS·🇷🇺 Russia

Wystrzelony Oct 9, 1985 z Plesetsk Cosmodrome

Loading…

Następne Przeloty (najbliższe 24 godziny)

TLE

ŚwieżeSource: Space-Track

Epoka: Sep 13, 2026, 22:51 UTC

1 18565U 85094U   26256.95274453  .00006151  00000-0  68784-2 0  9999
2 18565  82.4858  62.1777 0122363 239.4458 277.0341 13.67822996703304

Śledź COSMOS 1691 DEB w czasie rzeczywistym z AllMySat

Download on the App Store